Theta_e
317 320 320 321 327 335 337 340 329 329 327 312 315 319 320 328 328 330 333 332 335 336 335 337 335 336 336 336 337 336 337 340 339 335 339 352 351 345 346 342 342 344 347 346 345 346 344 337 333 337 339 339 339 341 341 341 341 342 343 342 343 342 342 342 342 343 342 342 341 335 333 338 341 341 340 340 338 336 337 336 335 335 334 334 334 335 336 336 336 337 337 337 337 337 337 337 336
316 318 319 322 329 332 330 334 322 317 316 310 315 319 322 327 326 327 330 331 334 334 335 337 336 337 335 334 334 338 342 344 347 346 347 351 348 347 345 343 343 344 346 346 345 345 344 338 333 335 339 339 338 341 341 340 341 343 343 342 342 342 342 342 342 343 342 342 340 335 337 341 340 340 340 340 340 338 338 337 336 335 334 334 334 336 336 336 337 337 337 337 337 337 337 337 335
315 316 320 324 328 328 327 326 318 311 311 309 314 321 324 325 324 325 327 329 333 333 335 334 335 335 332 337 337 340 345 346 348 347 347 350 349 346 344 344 342 345 346 345 345 344 345 339 332 334 337 337 336 339 340 339 341 342 342 342 341 342 342 342 343 343 343 342 340 338 340 341 340 340 340 341 341 339 338 338 336 335 335 335 336 337 337 338 338 337 337 337 337 338 336 334 332
315 317 320 322 323 325 326 323 319 313 310 309 312 322 325 324 324 323 325 328 330 330 331 331 333 334 330 337 337 340 345 347 350 348 349 351 349 346 345 344 342 344 343 345 345 345 345 339 332 332 335 335 334 336 339 339 341 342 341 341 341 341 342 342 342 343 343 343 341 341 340 340 340 340 340 340 337 333 334 337 337 336 336 337 337 337 338 338 338 338 338 338 338 336 333 332 332
318 320 321 323 323 324 325 323 322 315 312 314 313 321 325 323 323 322 324 327 327 328 328 327 333 336 334 334 335 343 348 347 350 350 351 351 348 346 345 344 343 342 342 344 344 346 345 339 333 332 335 335 331 335 339 340 342 342 341 342 342 342 341 342 342 343 343 343 342 341 340 340 340 340 340 337 333 330 329 332 336 337 337 338 338 338 338 339 339 338 338 338 336 333 331 332 332
320 321 322 323 323 323 323 318 317 315 318 322 318 321 324 323 323 323 323 325 325 327 327 326 330 332 339 341 339 346 350 349 350 350 350 349 347 346 345 343 343 341 343 344 344 347 344 340 335 333 334 331 330 336 340 340 341 341 341 342 342 342 342 342 342 343 343 343 342 341 341 340 341 340 339 337 335 334 330 328 334 338 338 338 338 339 339 339 339 337 338 336 333 331 331 332 331
319 321 323 322 323 323 320 315 314 316 321 325 323 323 324 323 323 323 323 324 323 325 326 327 327 325 340 345 346 350 350 351 350 349 349 347 346 345 344 343 343 342 344 344 345 347 343 340 336 333 332 328 332 338 340 341 341 341 342 342 342 342 342 342 342 342 342 342 342 341 341 341 341 340 339 339 337 336 332 328 334 339 339 338 337 338 338 338 339 338 336 333 331 331 332 332 332
320 321 322 322 322 323 319 316 317 320 322 324 325 323 323 323 323 323 323 323 322 324 325 326 326 327 336 341 348 352 350 352 351 349 348 346 346 343 344 343 342 342 343 344 346 346 342 339 337 332 329 328 335 339 341 342 342 342 342 342 342 342 341 342 342 342 342 342 342 341 341 341 340 340 339 339 337 336 332 330 335 339 339 338 338 339 339 338 339 337 334 331 331 331 332 332 332
321 321 321 321 321 320 318 317 319 323 324 323 324 323 323 323 323 323 323 323 322 323 325 326 326 328 333 340 350 352 350 351 349 348 347 345 344 343 344 343 341 341 342 345 346 345 341 339 336 329 326 331 338 341 342 343 342 342 342 342 342 342 341 341 341 341 342 341 341 340 339 339 338 338 337 337 336 335 333 332 336 338 339 339 339 339 338 338 338 335 332 331 330 330 332 332 333
321 321 322 321 320 316 314 316 319 323 325 324 324 324 323 323 323 323 323 323 322 323 325 327 328 328 332 344 352 352 350 350 348 347 346 344 343 342 343 342 341 341 343 344 345 344 342 338 332 327 331 337 341 342 343 342 342 342 342 342 341 342 341 340 339 338 338 337 336 336 336 336 335 335 334 335 335 334 334 334 335 336 337 338 339 338 337 337 336 333 332 331 330 330 331 332 333
321 321 321 320 316 312 311 315 319 323 325 325 324 324 324 323 323 322 323 323 323 324 326 327 329 330 334 347 353 352 351 350 349 347 345 343 342 342 342 341 341 342 343 343 343 343 342 337 330 332 339 341 342 343 343 343 342 342 342 341 341 342 340 337 335 333 332 331 330 331 330 329 331 331 331 333 333 334 335 334 334 335 336 336 337 336 335 334 332 332 331 330 329 330 330 331 332
320 321 322 318 315 314 316 316 319 323 324 324 324 324 324 323 323 322 322 323 323 324 326 326 327 328 335 350 355 351 351 350 349 347 345 344 342 343 341 341 341 343 342 342 344 342 341 338 335 339 341 341 343 343 342 343 342 342 341 341 341 339 335 333 332 331 330 327 324 324 322 321 321 323 329 333 333 333 335 334 334 334 335 335 334 333 332 331 331 330 330 329 329 329 329 330 331
320 321 322 318 318 319 318 318 320 323 323 325 324 324 324 323 324 323 323 323 324 325 326 328 326 329 338 352 356 350 351 351 348 347 346 344 343 343 343 343 342 343 342 343 344 341 340 339 339 342 342 342 342 343 342 342 342 342 341 341 339 335 332 332 332 330 325 319 316 315 314 313 312 313 323 331 332 333 334 334 334 333 333 333 331 329 329 328 328 328 328 328 328 328 328 329 329
319 322 322 320 321 321 319 319 321 320 320 325 324 324 324 323 324 323 323 323 324 326 327 328 325 331 339 346 353 351 351 350 348 347 346 344 344 344 343 344 342 342 343 343 343 341 340 339 340 341 341 342 342 342 342 342 342 341 340 338 335 332 333 333 331 325 318 315 314 313 311 309 309 309 318 327 331 333 333 334 333 331 330 330 329 327 327 327 326 327 327 327 327 328 328 327 328
319 321 322 321 320 319 320 320 321 319 320 325 325 325 323 323 324 323 323 323 325 327 327 330 328 332 337 338 347 351 351 349 348 347 345 345 344 345 344 344 343 342 343 343 343 342 340 339 340 340 341 344 343 343 342 342 341 340 339 335 334 333 334 332 326 321 317 317 316 315 313 311 311 309 313 322 328 331 332 332 330 329 330 330 330 329 328 327 327 327 326 327 327 327 327 327 327
319 320 321 320 318 317 320 321 322 320 321 325 324 325 323 322 324 323 325 325 326 328 326 330 332 331 336 338 346 351 350 349 348 347 346 345 345 346 345 344 343 343 343 342 342 342 340 339 339 340 343 344 344 344 343 342 340 339 337 335 335 334 333 329 323 320 319 320 321 323 323 324 324 318 315 319 324 328 329 330 328 327 329 330 330 330 329 329 328 328 327 327 327 326 326 326 325
319 320 320 318 317 317 320 323 322 320 322 325 323 324 322 323 325 324 326 326 326 328 327 330 334 334 335 341 350 352 350 349 348 348 346 346 346 345 345 344 343 343 343 342 342 342 340 339 339 341 344 344 345 345 344 342 339 338 336 336 335 333 330 324 320 322 324 325 329 334 334 335 336 333 327 321 320 322 324 327 326 326 329 329 330 329 329 328 328 327 326 326 325 325 324 323 322
319 320 318 316 318 319 322 324 323 323 324 323 323 323 323 323 325 326 326 327 326 327 329 331 334 335 336 344 352 351 349 349 349 348 347 347 346 345 345 344 343 342 342 342 341 341 340 338 339 342 343 345 345 345 343 341 339 338 338 337 335 331 324 322 326 331 332 332 335 337 337 337 337 338 335 329 326 323 321 322 323 325 327 328 328 328 327 326 326 325 325 324 324 323 321 323 327
319 320 318 317 321 322 323 324 323 324 323 321 322 323 323 323 323 327 327 327 326 325 327 330 333 336 339 345 351 350 350 350 349 348 348 347 347 346 346 344 343 343 341 341 340 340 339 337 340 342 343 345 346 345 344 341 340 341 341 340 337 331 325 328 335 337 335 334 337 337 338 338 338 339 337 336 333 323 317 319 321 324 325 326 326 325 324 323 323 322 322 321 321 321 322 329 334
319 319 318 319 322 322 323 324 323 324 323 321 322 322 323 323 324 325 326 326 326 326 327 328 330 334 340 345 350 351 351 351 349 349 348 348 348 347 346 345 343 342 341 340 339 339 337 337 341 342 343 345 346 346 345 343 343 342 341 341 339 336 334 336 337 336 336 335 337 338 339 340 340 340 336 334 332 324 317 316 319 321 322 322 322 324 324 323 322 321 319 319 323 326 329 333 333
319 319 319 320 322 322 322 323 324 323 323 321 321 322 322 323 324 323 324 325 325 326 326 328 327 328 340 345 348 352 352 351 350 350 349 348 348 347 346 345 343 342 341 340 338 338 337 338 341 342 342 344 344 345 345 344 344 341 341 340 339 339 337 337 336 336 337 337 338 340 341 341 340 340 337 337 338 335 330 326 325 326 328 326 327 333 334 332 331 330 326 327 331 333 334 335 333
318 319 320 321 322 321 322 323 323 324 323 322 321 322 322 323 323 323 323 323 324 326 324 327 325 329 343 344 347 353 353 351 351 350 349 348 348 347 346 344 342 341 340 339 338 337 338 339 341 342 342 343 343 343 344 345 343 341 340 340 339 338 336 336 337 338 338 339 340 340 341 340 340 340 340 342 341 339 339 337 336 336 337 335 336 339 338 337 337 337 335 335 337 337 337 338 338
318 318 319 320 321 321 322 322 323 323 322 321 321 322 322 322 323 322 323 323 324 326 325 327 325 329 340 344 349 353 352 350 351 351 349 348 348 347 346 344 342 341 339 339 338 337 339 340 341 343 342 343 342 341 343 344 342 341 340 339 339 337 335 337 337 338 338 340 341 341 341 341 342 341 340 342 341 339 339 339 339 339 339 339 340 339 338 339 339 338 338 338 338 338 338 339 339
318 318 319 320 320 321 321 322 322 322 323 321 321 322 322 322 322 322 323 323 323 325 325 327 327 326 331 341 351 353 352 351 351 350 349 348 348 347 346 344 343 341 340 339 338 337 340 339 340 343 343 342 342 341 342 342 341 340 340 339 338 335 336 337 337 337 338 340 341 341 342 342 342 342 342 342 341 341 340 340 340 340 340 340 341 340 339 340 339 340 340 340 339 338 339 339 339
317 317 319 319 320 320 320 321 322 322 322 321 320 321 321 322 322 322 322 322 324 324 325 326 327 326 325 337 351 353 352 352 352 350 349 348 348 347 346 344 343 341 340 339 338 338 339 339 339 341 342 342 342 342 341 341 341 341 341 339 337 336 336 337 337 338 339 340 341 342 343 344 343 342 343 343 342 343 342 342 342 340 340 340 341 341 340 341 340 340 340 340 339 338 338 338 338
317 318 318 318 319 320 320 320 321 321 322 322 320 320 321 322 321 321 323 323 323 323 325 327 327 326 325 336 350 352 352 352 352 350 349 348 348 347 346 344 343 342 341 340 338 338 339 339 338 339 341 342 342 342 341 341 341 341 340 338 336 336 336 337 337 338 339 339 341 342 343 345 345 342 343 343 342 344 342 341 341 340 341 341 341 341 340 341 340 339 339 339 338 338 338 337 337
317 318 318 318 319 320 320 320 320 321 322 321 319 319 320 321 321 321 323 324 324 323 325 327 328 327 325 336 350 352 352 352 351 350 349 349 348 347 347 344 343 342 342 340 338 338 338 338 337 338 340 342 341 341 341 341 341 341 340 338 337 336 337 338 338 338 339 339 341 342 341 343 344 343 344 342 341 342 341 340 340 339 341 341 340 341 340 340 340 339 339 338 338 338 338 337 337
317 317 317 318 318 319 320 320 320 320 321 321 319 320 320 321 320 320 323 323 323 324 325 328 327 327 325 336 352 352 351 352 350 350 349 349 348 347 346 344 343 343 342 340 339 338 338 337 337 338 340 341 342 341 341 342 341 340 339 338 337 338 338 338 337 339 338 338 341 341 341 343 344 344 344 342 340 340 339 340 340 339 341 341 341 341 341 341 340 340 339 339 338 338 338 338 337
316 317 317 317 317 318 319 319 319 319 320 321 320 318 318 320 320 320 322 322 324 325 325 328 328 328 325 336 352 351 351 352 350 349 349 348 347 346 346 344 343 343 342 341 339 339 338 337 338 339 340 342 342 341 341 341 341 340 339 338 338 339 338 337 337 338 338 339 341 341 341 343 344 342 340 340 339 339 339 339 339 340 341 341 342 341 342 341 340 340 339 338 338 337 338 338 337
315 317 316 316 316 316 319 318 318 319 319 320 319 314 315 320 320 321 322 323 326 324 325 328 327 329 327 335 349 351 351 350 350 349 348 348 346 345 346 344 344 343 343 341 339 340 339 338 339 340 341 342 342 341 341 341 340 340 338 338 339 339 338 338 338 338 338 339 339 341 343 343 343 341 338 339 339 338 339 338 337 339 341 341 342 341 341 340 339 339 338 337 337 337 337 336 336
315 315 314 315 312 313 319 318 317 319 318 320 318 311 314 320 320 322 324 324 326 324 326 331 327 329 331 336 346 348 350 350 350 349 347 347 345 345 346 344 344 344 343 342 340 340 339 339 340 340 342 342 342 341 341 341 340 340 338 338 339 339 338 338 339 338 338 339 339 341 343 343 341 339 339 339 339 339 339 338 337 338 341 341 340 340 339 338 338 338 338 338 337 336 336 335 334
314 312 311 313 311 313 318 317 317 318 318 320 318 312 315 320 320 324 327 325 326 325 328 331 328 331 336 339 345 347 349 351 350 349 347 347 346 345 346 345 344 344 343 342 341 340 339 340 340 341 342 342 342 341 341 341 341 339 338 338 338 339 338 338 339 338 338 339 339 341 342 343 341 339 340 339 339 339 338 338 338 339 339 339 338 338 337 336 336 336 337 337 337 336 335 333 333
314 312 310 311 311 312 315 317 318 318 318 319 317 315 317 320 320 324 326 327 327 325 328 331 329 333 340 342 345 348 350 351 349 348 347 347 346 345 346 345 345 344 343 342 341 340 340 340 341 341 342 342 341 341 341 341 340 339 339 338 338 339 338 339 339 338 338 339 340 341 342 343 341 341 341 340 339 339 338 338 338 338 338 337 337 336 335 334 334 335 335 335 335 335 334 332 332
312 312 310 311 312 311 312 316 318 318 318 318 318 317 317 319 320 321 323 327 328 326 329 332 328 330 339 343 344 346 349 350 348 348 348 348 347 346 346 345 344 345 343 342 342 341 340 341 341 342 341 341 340 341 342 341 340 339 339 338 339 339 339 340 339 338 339 340 340 341 341 341 341 341 341 341 340 338 338 338 337 337 336 336 335 334 334 333 333 334 335 334 333 333 333 332 332
310 311 310 310 311 312 312 314 317 318 317 317 318 317 318 319 319 321 325 328 329 329 330 331 326 327 338 343 340 340 345 349 348 347 348 348 347 347 347 345 345 345 343 343 342 341 341 341 341 341 341 340 340 341 341 340 339 339 338 339 339 338 339 341 340 339 340 340 340 341 341 340 339 341 340 340 339 337 337 337 336 335 335 334 334 333 333 333 333 333 332 333 332 331 331 331 332
312 312 310 309 309 311 314 316 318 318 317 317 317 316 318 318 318 325 333 333 332 333 331 329 328 328 336 341 337 336 340 346 348 348 347 348 347 347 347 345 345 345 344 343 343 341 341 341 341 341 341 340 340 340 340 339 339 339 338 338 338 338 338 339 339 340 340 340 340 341 340 339 338 338 339 337 336 336 336 335 334 333 333 333 332 333 333 332 332 332 331 331 331 330 329 330 331
314 314 312 311 310 310 315 317 318 319 316 316 317 317 318 319 318 324 335 335 334 332 329 328 328 328 332 337 338 337 337 343 348 347 347 347 346 346 346 345 345 345 344 343 343 342 342 341 341 341 340 340 340 339 338 339 339 339 338 338 338 338 338 338 339 340 339 339 339 340 339 338 337 336 336 335 335 334 334 333 333 332 331 330 330 331 330 330 330 330 330 329 330 331 329 329 330
314 314 312 311 310 311 315 317 317 319 317 315 317 317 318 319 319 321 328 331 331 330 328 327 326 327 331 332 337 340 338 342 347 346 346 346 346 346 345 345 344 344 344 343 343 342 341 341 341 341 340 340 339 338 337 338 338 338 338 338 336 337 337 338 339 339 338 338 338 338 337 337 336 335 334 333 333 332 332 332 332 330 330 329 329 330 329 329 329 329 330 328 328 329 329 329 329
314 314 311 310 312 312 314 316 317 317 316 315 317 316 317 320 319 320 321 323 327 331 329 327 326 327 330 330 336 340 339 342 345 345 346 345 345 346 344 344 343 343 343 343 341 340 341 341 341 341 340 340 339 338 338 337 337 337 337 336 336 337 337 338 337 336 336 336 335 335 335 334 333 332 331 331 331 331 330 330 330 329 328 328 328 329 328 328 328 328 329 327 325 325 326 327 329
313 313 310 309 313 312 310 313 317 317 316 316 317 316 317 319 320 319 321 320 323 329 329 329 328 327 329 331 336 339 340 344 345 345 345 345 345 345 344 344 343 343 343 341 339 339 341 341 341 341 340 340 339 337 337 337 337 338 337 337 337 337 337 336 335 335 334 334 333 333 332 331 330 330 329 330 330 330 329 329 328 327 327 326 327 327 327 326 327 327 328 327 325 324 323 323 325
312 313 312 310 313 313 311 314 316 315 316 317 316 313 313 317 319 318 320 320 320 323 328 331 330 327 328 332 335 337 341 345 345 344 344 344 345 344 344 344 343 343 342 340 339 339 340 341 341 340 340 339 338 337 337 338 338 338 338 337 337 336 336 335 334 334 333 332 332 331 330 330 329 328 329 329 329 328 327 327 326 326 325 325 325 325 325 326 326 326 325 326 325 323 321 320 320
312 314 314 313 314 314 314 316 314 311 312 315 314 308 309 315 317 318 319 318 319 319 323 329 329 328 328 329 333 337 342 344 345 343 342 344 344 343 343 343 343 343 341 339 338 336 338 341 341 340 340 339 339 338 338 338 338 338 338 337 337 336 335 334 334 334 332 331 331 329 328 328 328 327 327 328 328 327 325 325 325 325 323 323 324 324 324 325 325 324 323 323 322 321 319 317 315
311 313 314 315 315 314 314 314 312 309 309 315 315 309 308 311 314 317 318 318 319 318 319 325 329 329 329 328 332 338 341 343 343 342 341 342 344 344 343 343 343 343 342 340 337 334 337 341 341 340 340 339 339 338 338 338 338 337 337 337 336 336 335 334 334 333 332 331 330 328 327 326 327 327 327 327 327 325 324 324 323 322 321 321 321 322 322 322 321 321 321 320 320 320 319 315 313
310 314 315 315 315 314 314 314 311 310 312 314 314 312 308 307 312 318 319 317 318 318 319 323 328 331 330 329 333 338 341 342 343 342 342 342 343 344 343 343 342 342 342 341 338 336 337 340 341 340 340 339 339 338 338 338 338 338 337 336 336 336 335 334 333 332 330 329 328 327 327 326 327 327 327 326 324 324 324 323 322 320 319 319 319 320 320 320 319 318 318 318 319 321 320 317 314
312 315 315 314 314 315 315 312 311 311 311 309 310 312 309 307 311 319 320 317 317 319 319 322 328 330 330 332 335 338 340 342 343 343 342 342 343 343 342 342 343 343 342 341 340 338 337 340 341 340 339 339 339 339 338 338 338 337 338 337 336 336 335 334 332 331 328 327 327 326 326 327 327 327 325 324 323 323 322 321 319 318 318 317 317 318 318 317 317 315 315 316 316 317 317 316 314
313 314 315 315 314 314 315 313 310 310 311 309 309 310 310 308 310 315 317 316 317 319 319 323 328 328 330 334 336 337 340 342 342 342 342 342 343 343 342 342 342 343 342 341 340 338 337 339 341 339 339 339 339 339 338 338 337 337 338 338 338 336 334 333 331 329 328 328 327 325 326 327 326 325 324 323 323 322 321 319 318 317 317 315 315 315 314 314 313 313 313 313 313 314 314 314 314
313 314 314 313 314 314 314 313 310 310 311 310 310 310 310 309 309 312 315 316 319 320 321 324 328 328 330 335 336 337 340 341 342 342 341 342 343 343 341 342 342 342 341 340 340 339 338 338 340 340 340 339 339 339 338 338 337 337 339 339 338 335 333 332 330 329 328 327 327 326 326 327 326 325 323 322 322 321 320 318 317 316 316 315 314 313 312 310 310 310 311 311 311 312 312 312 312
312 313 312 311 313 312 311 311 310 311 312 310 310 310 310 308 309 313 317 319 321 323 324 326 330 330 330 334 336 337 338 341 342 341 341 342 342 342 341 341 342 341 340 339 340 340 339 338 339 340 340 339 339 339 338 338 337 338 339 338 336 334 332 331 330 330 329 327 327 326 326 326 325 324 323 322 321 320 319 318 316 316 315 315 313 312 310 309 309 309 309 310 311 311 312 312 312
310 311 311 311 311 312 312 310 309 311 310 310 311 310 309 309 313 317 319 318 321 325 325 325 330 331 329 333 336 336 337 341 343 342 342 342 341 342 341 341 342 341 340 340 340 340 340 339 340 340 339 339 339 339 338 338 338 338 338 337 334 333 332 331 331 330 329 328 327 326 326 326 325 323 322 322 320 319 318 317 316 315 315 313 312 311 309 309 309 308 309 309 310 311 311 312 312
309 309 310 311 311 313 315 312 311 312 310 310 312 310 309 311 316 321 320 319 321 325 326 326 329 330 330 334 336 336 336 337 340 341 342 342 341 341 341 341 342 341 340 340 340 340 339 339 340 339 339 339 339 339 338 338 338 338 337 336 333 333 332 332 331 330 329 328 327 326 326 326 325 323 322 321 320 318 317 317 316 314 313 312 311 309 308 308 308 308 308 308 308 309 310 310 310
310 310 311 311 311 313 315 313 312 313 311 310 311 312 310 310 316 321 320 320 321 324 327 327 328 329 333 334 332 334 335 333 337 341 342 341 342 341 340 341 342 342 341 340 339 339 339 339 340 339 338 339 339 339 338 338 338 337 336 335 333 333 333 332 331 330 329 328 327 326 326 326 324 323 322 321 319 317 317 316 314 313 312 311 309 308 308 308 307 307 308 308 307 308 308 309 309
310 311 311 311 311 312 312 312 313 312 312 312 312 313 314 315 321 323 321 321 320 324 327 326 326 329 333 332 329 332 335 334 337 340 341 342 342 342 340 341 341 342 341 341 340 340 340 340 339 338 338 339 339 339 338 338 337 337 336 335 333 332 333 332 331 329 329 328 327 326 326 325 324 323 321 319 318 317 316 314 313 312 311 310 309 308 307 307 307 307 307 307 306 307 307 307 308
310 309 309 312 314 314 311 312 314 314 315 314 312 313 314 316 321 323 324 322 321 325 328 325 325 330 332 331 329 331 334 336 335 336 340 342 342 342 341 340 341 342 342 341 340 340 340 340 339 338 338 338 339 338 338 337 337 337 336 335 333 333 332 331 330 330 329 328 326 326 325 324 323 322 320 318 317 316 315 314 313 312 311 310 308 307 307 307 307 307 307 307 307 307 307 307 307
310 308 310 313 314 315 313 312 314 315 315 314 312 312 312 311 314 321 325 324 322 325 327 325 327 329 330 329 329 330 334 338 336 336 340 342 341 343 342 341 341 341 341 341 340 340 340 339 339 338 338 338 338 338 337 337 337 337 335 334 333 333 332 331 329 329 328 326 325 325 324 322 321 320 319 317 316 316 315 314 312 311 311 309 308 307 307 307 307 307 307 307 306 306 306 306 306
311 310 311 312 311 311 312 313 314 315 315 314 311 312 312 310 313 320 325 324 323 325 326 325 326 328 328 328 329 330 333 337 336 337 340 340 341 343 343 341 341 341 341 341 341 340 340 339 339 339 338 338 338 338 337 337 337 336 335 334 333 332 331 330 329 328 326 324 323 322 322 321 320 319 318 316 316 315 314 313 312 311 310 309 308 307 307 307 307 307 307 306 306 306 306 306 306
311 311 311 311 311 311 311 312 313 313 314 314 313 313 313 313 317 321 325 325 324 325 326 325 324 326 328 329 331 332 333 336 335 337 341 341 341 342 342 342 342 341 341 341 340 340 340 339 339 339 339 339 338 338 337 336 336 335 334 334 333 332 330 329 328 326 324 322 322 321 321 320 319 318 317 316 316 315 313 313 312 311 310 309 308 307 307 307 307 307 306 306 306 306 306 306 305
310 310 310 310 311 312 312 312 311 311 313 312 313 314 313 317 322 324 325 326 325 325 326 324 325 328 330 331 333 333 334 336 336 338 342 342 342 343 341 341 342 341 341 340 340 340 339 339 339 339 339 339 338 338 337 336 335 334 334 333 332 330 328 327 327 325 323 322 320 320 320 319 318 317 316 316 315 314 313 312 311 310 310 309 308 307 307 307 307 307 306 306 305 305 305 305 304
310 310 310 310 310 310 311 312 311 310 311 311 313 313 313 318 324 323 324 326 325 324 325 325 325 329 331 333 333 333 335 337 335 337 342 343 343 343 341 341 342 341 341 340 339 339 339 339 338 338 338 338 338 337 336 335 334 334 333 332 331 328 326 326 325 323 322 320 320 320 319 318 317 316 315 315 314 314 313 312 311 310 309 308 308 308 307 307 307 307 306 305 305 305 305 305 305
Wind_Speed
15 17 18 15 7 8 8 7 6 5 8 4 4 4 3 2 3 5 7 3 2 6 5 5 2 2 5 7 8 10 11 11 8 5 4 5 8 11 10 14 20 20 21 21 20 19 17 18 17 17 17 17 16 14 13 12 12 11 9 9 9 9 10 10 10 10 10 10 10 10 9 9 9 9 11 14 13 13 14 13 13 12 13 13 13 13 13 14 14 14 14 14 14 13 13 12 12
14 16 18 16 8 8 5 6 7 6 8 4 4 3 4 5 1 2 4 3 3 5 2 3 3 4 3 3 2 5 8 11 9 7 7 10 13 12 13 16 18 20 21 21 20 19 18 18 18 17 17 17 17 15 14 13 12 11 9 10 9 9 9 9 10 10 9 10 10 9 9 8 8 10 10 13 13 13 13 13 13 13 13 13 13 14 14 15 14 14 14 13 13 12 11 11 11
12 14 14 13 8 7 6 7 8 7 7 6 4 2 3 5 4 5 6 5 5 3 1 2 4 4 1 2 1 3 4 5 8 9 7 12 13 12 15 17 18 19 20 20 20 18 18 18 18 17 17 18 17 15 15 14 12 11 10 10 10 10 9 9 9 9 9 9 9 8 8 8 8 9 10 13 14 12 12 13 13 13 13 14 14 14 14 14 13 13 12 12 12 11 10 11 12
12 12 10 10 6 6 7 7 8 8 7 6 4 4 5 0 5 4 5 5 4 1 0 1 3 4 4 2 3 3 4 3 7 7 7 9 12 16 18 17 18 18 19 19 18 18 18 18 17 17 17 17 16 16 17 15 12 11 10 10 10 10 9 9 8 9 9 8 8 8 8 7 7 8 9 11 11 11 12 13 12 13 13 13 14 14 14 13 13 12 12 11 10 10 11 12 13
12 11 9 7 5 5 6 7 7 8 5 4 4 6 6 4 3 3 5 4 3 1 2 3 1 4 1 5 2 2 3 4 7 8 9 11 17 20 19 18 17 17 17 18 18 18 17 17 17 17 16 16 16 17 18 15 12 11 11 10 10 10 10 9 9 8 8 8 8 8 7 6 6 8 8 9 8 9 10 12 13 13 13 13 13 13 13 12 12 11 11 10 9 11 12 13 13
11 10 9 6 5 5 6 6 7 8 3 4 3 7 5 5 2 2 5 4 4 2 2 3 3 2 4 7 5 4 2 3 6 8 12 15 20 20 19 18 16 17 17 17 18 18 17 18 17 17 16 16 18 19 18 15 13 12 12 11 10 10 10 9 9 8 8 7 7 7 7 6 6 7 7 7 7 8 8 10 12 13 13 13 13 12 12 12 11 10 9 9 10 12 12 13 13
8 6 6 6 5 4 7 8 9 9 6 7 3 7 5 4 1 2 4 4 3 3 1 2 4 3 5 7 4 8 8 6 6 9 15 18 21 20 19 17 17 18 17 17 17 18 17 18 17 16 17 18 20 19 17 15 14 13 12 12 11 10 10 9 9 8 8 7 7 7 6 6 6 6 6 5 5 6 7 10 12 11 11 13 13 11 11 11 10 9 9 10 11 11 12 12 13
7 6 3 4 6 4 8 8 10 10 8 9 5 5 1 2 2 4 2 2 1 2 2 1 3 3 3 5 3 9 10 12 12 15 19 20 21 19 18 17 18 18 16 17 18 18 17 17 17 16 18 20 20 18 16 15 14 14 13 12 11 11 10 10 9 8 8 7 7 6 6 6 5 5 4 4 4 5 6 9 11 10 10 11 12 11 10 10 9 9 9 10 10 10 11 11 12
8 6 2 4 7 7 8 9 10 12 8 7 7 2 1 2 3 4 2 3 3 0 2 5 5 4 1 4 6 9 10 13 15 17 19 19 20 17 16 17 18 18 17 18 18 17 17 17 16 18 20 21 20 17 16 15 14 14 13 12 11 11 11 10 10 9 8 7 6 6 5 5 5 5 4 4 4 5 5 8 9 9 9 10 10 10 10 9 8 9 9 8 8 9 9 9 10
7 5 4 5 7 9 10 11 9 12 10 7 10 9 6 4 3 4 5 1 3 3 4 6 4 3 3 6 7 6 9 12 15 17 18 18 17 16 15 16 17 18 18 17 17 17 17 17 18 21 22 20 18 16 16 15 14 14 13 13 12 11 11 10 10 8 7 7 6 6 5 6 6 6 6 5 5 6 6 7 8 8 8 9 9 9 9 7 7 8 8 7 7 7 7 7 7
5 5 6 6 8 10 10 12 10 10 14 10 10 10 6 6 5 3 5 1 1 3 3 3 3 3 3 7 5 5 9 12 16 17 18 17 16 15 15 16 16 16 18 17 17 17 17 17 20 22 21 19 18 17 16 15 15 15 14 14 13 11 10 9 8 7 6 5 5 6 5 6 6 7 7 6 6 7 7 7 8 8 8 7 7 8 8 7 7 7 6 6 6 6 5 5 5
7 7 6 7 8 11 11 12 12 12 15 13 12 12 9 9 7 5 6 3 1 3 1 5 5 5 3 7 5 5 10 12 16 18 17 17 15 15 15 15 15 16 17 17 16 16 17 18 19 19 19 18 17 17 16 16 15 15 15 14 13 11 10 9 7 6 5 4 4 4 4 5 6 7 9 8 8 8 8 7 8 8 7 7 8 9 8 7 6 5 4 4 4 4 3 3 2
8 8 8 9 8 11 13 13 13 14 14 12 13 14 12 10 10 9 7 3 4 5 4 8 6 3 4 6 5 6 9 13 16 17 17 16 15 15 14 14 15 15 16 16 16 16 18 18 17 16 17 18 17 17 16 16 15 15 14 13 12 11 9 8 6 5 5 5 5 4 4 4 5 7 10 10 9 9 8 7 7 8 8 7 8 9 8 7 6 5 4 3 2 2 2 1 0
8 9 10 11 10 13 13 12 13 13 13 12 15 14 10 11 12 8 5 6 10 2 8 7 8 4 5 2 5 7 9 14 16 17 17 16 16 14 14 14 14 14 15 15 15 16 17 18 17 16 17 17 16 16 16 16 15 14 13 13 12 10 8 7 6 6 6 7 7 7 6 6 6 7 9 10 10 10 9 8 8 9 9 8 8 8 7 7 6 5 4 4 3 1 1 1 1
8 7 9 11 12 13 13 12 15 15 13 14 18 14 10 12 9 7 8 9 5 6 5 1 5 6 3 2 2 7 14 17 16 16 17 16 15 13 13 14 13 12 14 15 14 16 16 17 17 16 17 17 16 16 16 16 15 14 13 13 11 9 7 6 7 8 9 9 9 10 9 9 8 7 8 9 10 11 10 9 9 10 10 9 9 8 7 7 6 6 5 4 4 3 2 2 3
7 7 8 11 14 14 13 15 16 15 13 15 17 12 13 13 9 8 6 4 4 5 2 3 2 5 4 2 4 15 19 19 16 16 16 15 15 13 13 13 13 12 14 14 14 15 15 16 16 16 17 18 17 16 16 15 15 15 14 12 10 8 6 7 9 10 10 10 11 11 11 10 8 8 8 8 9 11 11 9 9 10 10 10 9 9 8 7 7 6 5 5 5 4 4 4 4
7 9 9 12 15 15 14 15 15 14 15 15 13 12 15 14 12 10 3 3 11 4 6 2 4 6 6 4 12 21 21 20 17 17 16 16 16 14 13 14 14 13 13 14 14 14 14 15 16 16 18 18 18 18 17 16 16 16 14 12 10 7 7 8 10 10 10 11 13 12 11 8 5 6 7 7 7 9 11 10 10 10 10 10 10 9 8 7 7 6 5 5 5 5 5 5 4
8 9 11 13 15 15 15 15 14 16 16 11 13 15 15 16 14 9 6 10 14 9 7 5 7 4 5 7 17 22 21 22 19 18 17 16 16 13 14 14 14 13 13 14 14 14 14 15 16 16 18 19 18 18 18 17 17 16 13 12 9 8 9 10 10 9 10 10 10 9 8 7 6 7 8 7 7 8 10 10 10 10 9 9 8 8 7 6 6 5 5 5 5 5 5 6 7
10 8 11 13 14 15 17 18 15 16 12 8 12 17 15 20 18 9 5 12 15 14 11 8 8 8 9 10 17 21 21 22 19 18 16 16 16 13 14 14 15 14 14 14 14 14 14 15 16 16 19 20 18 17 17 17 17 16 14 13 11 11 11 10 10 10 10 8 7 6 6 7 7 8 9 8 7 7 7 9 9 9 8 8 8 7 6 6 6 5 5 5 4 4 6 10 10
12 11 12 14 17 18 20 20 18 16 11 8 10 15 16 20 17 10 7 9 14 14 11 9 9 8 12 13 16 19 19 20 18 18 16 16 16 15 14 15 15 15 14 15 14 15 15 15 16 16 18 19 17 16 16 17 17 16 15 13 12 12 11 10 10 10 9 8 7 7 7 8 7 8 10 9 8 7 7 7 8 8 7 7 6 6 4 3 4 4 4 4 4 6 9 10 7
12 14 14 16 20 20 22 22 20 19 12 9 12 15 17 16 12 13 13 10 11 11 10 10 11 9 14 13 14 18 17 18 17 17 16 15 17 15 15 16 15 14 15 15 14 15 15 15 16 16 17 18 17 17 17 16 16 15 14 12 12 12 11 10 9 9 8 8 8 8 7 7 7 8 10 10 9 8 8 8 8 8 7 7 6 7 7 5 5 7 6 4 5 7 6 4 4
12 17 21 22 23 21 22 22 21 20 13 12 17 18 16 15 13 15 20 15 9 9 10 10 12 6 15 13 12 16 15 16 16 17 16 15 17 15 14 16 14 14 15 14 15 16 16 15 15 16 17 17 16 16 16 16 15 14 12 12 11 11 9 9 9 8 8 9 8 7 7 6 7 8 7 8 9 9 10 11 10 9 9 9 6 7 9 7 6 7 7 3 3 3 1 2 2
14 17 22 25 25 23 20 21 21 19 16 15 17 18 17 17 16 16 20 17 10 13 11 4 4 1 11 13 13 15 15 15 16 17 16 15 17 15 13 15 15 14 15 14 15 16 16 15 16 15 16 17 15 14 14 14 14 12 11 11 11 10 9 9 9 9 9 9 8 7 6 6 6 7 6 6 7 8 10 10 9 8 8 8 5 4 5 4 3 2 2 1 1 0 1 1 1
19 17 22 25 25 25 23 21 20 21 21 18 16 18 20 19 16 15 17 15 12 18 13 2 2 4 4 11 14 14 15 15 16 17 16 15 15 15 13 15 16 15 15 16 16 16 17 16 16 15 15 16 15 14 14 13 13 11 11 11 9 9 9 9 9 9 9 9 8 7 6 5 5 5 5 5 6 6 6 5 5 5 4 4 3 1 2 1 1 1 1 1 0 1 1 1 2
22 22 21 22 24 24 23 23 21 22 21 17 17 21 22 20 16 15 17 15 14 18 12 6 7 9 7 8 14 13 14 15 16 16 16 15 15 15 15 16 16 16 15 16 17 17 17 17 17 16 15 16 15 14 13 12 12 11 11 10 9 10 9 9 9 9 9 8 7 6 6 5 5 5 4 5 5 5 4 4 4 4 3 3 3 1 1 1 0 1 0 1 1 0 0 1 2
21 25 22 21 25 25 21 24 26 24 18 15 19 24 23 19 16 15 18 17 14 17 15 9 8 10 9 9 12 13 14 14 15 17 17 16 16 16 17 17 17 16 15 16 17 17 18 17 17 16 15 15 14 14 13 12 12 12 11 10 9 10 10 9 10 9 8 7 6 6 6 5 5 4 5 5 5 5 5 5 5 5 4 4 3 2 2 1 1 1 1 1 1 1 1 2 2
19 25 25 24 26 25 22 24 29 26 20 19 20 24 23 18 16 13 15 17 14 17 17 11 8 11 11 9 12 12 13 15 16 18 17 17 18 18 18 18 18 16 17 17 17 17 18 18 17 17 15 14 14 13 13 12 12 12 11 10 9 10 10 10 10 9 8 7 6 6 6 5 4 4 5 5 6 7 7 6 5 5 5 4 4 3 2 2 2 2 2 3 3 2 2 2 3
22 25 23 25 25 25 24 22 23 22 21 21 20 23 22 18 19 16 14 15 15 19 16 9 9 12 13 10 12 11 11 15 17 18 18 18 18 19 19 19 19 18 18 18 17 17 18 18 17 17 16 14 14 13 13 13 12 12 11 10 10 10 11 10 9 8 7 6 6 6 5 4 4 4 5 6 6 6 7 6 5 5 5 5 4 4 3 2 2 2 3 2 2 2 2 3 3
22 24 19 22 24 26 28 22 20 22 20 19 18 19 21 20 22 21 16 14 15 18 14 8 11 13 14 11 11 10 11 15 17 18 19 19 19 20 20 20 19 18 18 18 16 18 18 18 17 17 16 15 15 14 13 13 13 12 11 10 11 11 11 9 8 7 7 6 6 5 5 3 3 4 7 7 4 4 3 3 4 6 5 5 5 4 4 3 2 2 2 2 2 2 2 3 3
17 20 15 14 17 22 26 21 22 25 20 18 17 15 17 21 25 22 15 14 16 16 14 13 14 13 13 11 11 10 12 15 16 17 20 20 19 20 21 20 19 18 18 18 17 18 19 17 17 17 17 16 16 15 14 13 12 12 11 10 10 11 9 8 7 7 6 6 5 4 4 3 3 4 6 6 2 3 2 0 1 6 6 5 5 4 3 2 2 2 2 2 2 2 2 3 3
14 17 14 12 13 16 22 21 24 25 19 21 20 14 16 20 24 22 16 17 17 15 16 16 15 14 13 11 11 11 12 14 16 18 20 21 19 20 22 20 20 19 18 20 19 19 19 17 17 17 17 17 17 15 14 13 12 11 11 10 10 10 8 7 6 7 6 6 5 4 3 3 4 4 4 5 3 2 4 3 1 5 6 5 5 5 4 2 2 3 3 3 3 2 2 2 2
13 15 13 13 14 15 21 24 26 25 21 24 22 15 16 19 22 20 17 20 20 18 19 18 17 15 13 12 12 12 12 14 17 18 19 21 20 20 21 21 20 20 20 20 20 20 19 18 18 17 18 18 17 16 14 13 12 11 11 10 10 10 8 7 7 6 6 5 4 3 3 3 4 3 3 4 5 3 4 4 2 4 6 6 6 5 3 3 2 2 3 4 3 2 1 1 2
13 14 13 15 19 17 18 22 27 29 23 23 25 18 14 17 19 19 18 21 21 20 19 19 18 15 14 13 12 12 12 13 15 18 20 21 20 18 20 22 21 21 21 21 22 22 20 19 19 18 18 19 18 17 15 14 13 12 11 10 10 9 8 7 7 7 6 5 4 3 3 2 1 2 2 2 4 4 4 5 4 5 6 5 5 4 3 3 3 3 3 4 4 3 2 1 2
12 13 15 18 23 20 18 19 24 29 25 24 27 23 18 17 17 21 21 21 21 20 18 18 17 16 15 11 10 12 12 14 14 17 21 21 20 20 20 23 22 21 22 22 22 22 21 20 19 18 18 19 18 17 15 15 15 13 12 11 10 9 8 7 6 6 5 4 4 3 3 2 2 2 1 1 2 4 5 5 5 6 5 5 4 3 2 2 3 3 3 3 4 3 2 1 2
17 17 16 18 22 24 23 20 19 24 27 27 27 25 24 22 21 18 13 17 20 19 18 17 17 17 15 11 10 11 12 13 14 18 22 20 20 20 21 24 23 22 23 22 22 22 21 20 19 18 18 19 18 18 17 16 15 14 12 11 10 9 8 8 7 6 5 4 4 3 3 3 4 3 3 3 3 4 5 5 5 5 4 4 3 1 1 1 2 2 2 2 2 2 1 1 2
24 21 19 18 19 21 22 23 22 23 23 26 27 26 24 23 24 16 11 14 17 17 16 15 15 16 14 13 11 11 14 12 14 19 21 20 19 18 20 24 23 22 23 22 22 22 22 21 19 19 19 19 18 17 16 16 15 14 13 12 11 10 9 8 7 6 5 5 4 4 3 3 5 5 4 4 4 4 4 4 4 4 3 3 2 1 1 2 2 2 2 1 1 1 2 3 6
25 22 20 20 19 18 21 24 24 24 21 22 26 29 25 22 25 21 17 18 18 17 18 16 16 16 14 15 15 15 16 13 14 20 20 20 20 19 19 22 22 22 22 23 23 22 22 20 19 19 19 19 17 15 15 16 16 14 13 13 12 12 10 10 8 6 6 6 5 5 4 4 5 6 5 4 5 4 4 3 3 4 3 2 2 1 1 2 1 1 1 0 1 3 3 4 9
23 19 18 18 18 18 22 23 23 26 23 20 24 27 26 23 24 24 22 22 20 19 20 18 20 17 14 16 17 16 14 12 14 18 20 21 21 21 20 21 23 22 22 24 23 21 19 19 20 20 20 19 18 18 16 16 17 15 14 14 13 11 10 10 9 7 6 6 7 6 5 5 6 6 5 4 4 3 3 2 2 2 2 1 1 1 1 1 1 2 2 2 1 3 3 4 7
21 17 16 15 16 17 20 24 23 22 19 18 23 23 22 24 24 24 25 23 19 20 21 21 21 19 16 16 15 15 14 14 16 17 20 22 23 23 21 21 23 22 22 23 24 23 21 20 20 19 19 18 18 19 17 17 17 15 14 13 12 10 9 9 9 8 7 7 8 8 7 7 6 6 5 4 3 3 2 1 1 1 1 1 2 2 1 1 2 3 3 3 3 4 4 3 2
18 16 15 13 16 17 15 19 23 22 18 16 20 19 16 19 21 22 25 24 20 21 23 22 21 19 18 16 14 15 16 16 17 18 18 20 23 23 21 22 23 22 22 23 27 27 23 22 22 21 20 19 19 20 18 17 16 14 12 11 11 11 10 11 10 8 7 8 8 8 9 10 8 6 5 3 2 2 1 1 1 1 1 1 1 2 2 2 3 3 3 3 3 4 5 2 1
18 21 17 13 17 18 14 17 22 23 19 15 16 15 12 16 19 20 21 23 22 20 22 22 21 20 18 17 16 15 16 17 17 18 17 18 21 23 24 24 24 23 23 26 30 28 22 22 24 23 22 20 20 20 19 17 15 14 13 12 13 12 11 11 10 9 9 9 9 8 9 9 7 5 5 2 0 1 1 1 0 1 1 2 2 3 4 4 4 4 3 3 1 2 4 4 1
16 20 18 17 20 20 19 21 19 15 13 15 17 13 10 15 20 19 17 19 22 20 21 22 21 20 19 17 17 16 16 17 17 18 18 19 21 23 25 25 25 25 24 28 31 29 24 24 25 23 22 21 21 20 20 19 17 17 17 16 15 13 11 11 11 12 11 11 11 10 9 8 6 5 4 2 1 2 1 1 1 3 3 4 4 4 5 5 5 5 4 3 3 3 4 4 3
13 16 18 22 23 20 21 21 16 11 11 17 19 14 10 13 18 19 18 20 23 22 21 22 20 19 19 17 16 16 16 16 16 17 19 19 21 23 24 26 26 26 26 29 32 32 28 26 25 25 24 23 22 21 22 21 20 20 19 16 15 14 13 12 13 13 13 12 12 10 9 8 6 4 2 1 1 1 1 2 3 4 4 5 5 5 6 6 5 5 5 4 4 3 2 3 4
12 15 18 21 20 20 23 22 16 11 12 15 19 17 12 11 15 18 20 21 22 23 23 23 21 20 20 18 18 18 17 17 16 17 19 19 22 23 24 26 27 26 27 30 33 30 27 26 26 27 25 23 23 23 23 23 21 20 19 16 14 14 14 14 15 14 13 13 12 11 9 7 5 2 1 1 1 1 2 3 3 4 5 5 6 6 7 7 6 6 6 6 5 4 3 3 4
14 16 19 19 16 17 21 20 15 13 13 12 17 18 12 11 13 16 21 22 23 25 26 25 23 22 21 19 19 19 18 18 17 18 19 20 22 24 26 26 25 26 28 30 30 25 25 26 26 25 23 23 23 24 24 23 20 19 17 15 13 13 15 16 15 14 13 13 13 11 9 7 4 2 2 3 3 2 2 4 4 5 6 6 7 8 8 8 8 8 8 7 7 6 6 5 5
15 18 18 18 17 16 15 14 14 14 13 12 16 19 12 10 13 14 17 20 22 23 23 23 23 22 22 20 20 19 18 17 17 18 19 21 23 25 26 25 24 26 29 29 26 23 25 26 24 24 24 22 23 25 24 22 21 19 16 14 13 15 17 16 15 15 15 14 12 11 10 7 5 4 4 4 4 3 3 4 5 6 6 7 8 9 9 9 9 10 10 9 9 8 8 7 6
15 17 16 15 15 15 12 10 12 12 12 15 19 20 16 11 11 13 15 17 20 19 18 19 22 22 21 20 19 19 18 16 17 18 18 21 24 26 26 25 24 26 27 27 25 25 26 26 24 25 24 23 24 25 24 23 21 19 17 15 16 18 18 17 17 17 17 14 13 12 10 7 6 6 5 5 5 5 4 5 6 7 7 8 8 9 9 9 9 10 10 11 11 10 9 9 9
17 15 15 12 12 12 10 9 11 11 12 16 20 23 20 12 10 13 18 20 19 18 18 20 22 23 21 20 19 19 18 17 18 18 18 20 22 24 26 26 26 27 27 27 26 26 27 26 26 26 25 24 25 25 24 23 21 19 17 18 19 20 18 18 19 19 18 15 14 13 10 8 8 7 6 6 5 6 5 6 7 7 8 8 8 9 9 9 9 9 10 10 10 10 9 9 9
16 14 15 13 11 11 11 11 11 11 13 16 21 24 18 12 12 15 18 21 19 16 17 19 22 23 22 21 20 18 18 17 18 18 18 18 18 21 25 27 29 29 28 28 27 27 27 27 27 28 27 26 25 25 25 23 22 20 19 21 22 21 18 19 20 19 18 16 15 14 12 10 10 8 7 7 6 7 7 7 7 7 8 8 9 9 10 10 10 10 10 10 10 9 9 9 9
16 16 15 13 11 11 13 12 11 12 14 17 21 19 13 11 15 18 18 16 17 18 17 18 21 23 21 21 20 18 19 19 17 17 18 18 18 21 25 27 28 29 28 28 27 27 28 28 28 28 27 26 25 24 25 23 22 21 21 22 22 21 21 21 20 19 19 17 15 15 13 11 10 9 7 7 8 8 8 8 8 9 9 9 10 10 10 10 10 11 10 10 10 9 10 10 9
16 17 16 14 12 11 11 11 12 13 13 16 18 14 12 12 11 15 20 17 14 16 18 17 18 21 19 19 20 19 19 19 18 18 19 19 20 24 26 26 27 28 29 28 28 27 27 27 29 28 27 27 26 25 25 23 22 21 21 22 21 21 22 21 20 20 19 17 17 16 13 11 10 9 8 8 9 10 9 9 9 10 10 10 10 10 10 10 11 10 10 10 10 10 10 10 9
14 16 17 14 13 12 9 10 11 10 11 13 13 9 11 11 4 7 16 18 15 13 15 17 17 19 19 17 19 18 17 18 18 18 18 19 22 26 27 26 27 28 29 29 29 28 28 28 29 29 27 28 26 25 25 23 22 21 21 22 22 23 24 22 21 20 19 18 18 16 13 11 10 9 8 9 11 11 11 10 11 11 10 10 10 10 10 10 10 10 10 10 10 10 10 9 8
11 14 16 15 16 14 9 9 8 7 10 11 10 10 12 11 7 7 10 16 18 15 14 17 17 19 19 17 17 17 17 17 18 18 19 20 22 25 27 27 27 28 29 30 30 30 30 29 29 28 28 28 27 26 25 24 23 22 22 23 24 26 25 23 22 20 18 17 17 16 12 10 10 9 9 11 12 12 11 11 12 11 11 11 10 10 10 10 10 10 10 10 9 9 8 8 7
11 12 16 16 17 14 9 9 8 8 10 9 12 16 14 11 10 10 11 15 17 17 16 17 17 19 20 17 17 18 18 18 18 18 20 21 22 24 27 28 28 29 29 30 30 30 30 30 30 29 29 29 28 26 25 24 23 23 23 24 25 26 25 22 23 22 19 18 18 16 13 11 11 11 11 13 14 13 13 12 12 12 11 11 10 10 11 10 10 10 10 9 9 8 8 7 7
15 12 15 15 14 13 10 8 9 11 10 8 14 18 14 12 10 11 15 17 15 16 16 17 18 18 18 17 18 19 19 18 17 17 18 19 20 24 28 29 29 29 28 29 30 30 29 30 30 30 29 29 28 26 25 24 24 22 23 24 25 25 24 22 24 23 21 20 19 17 14 12 12 13 13 15 15 14 13 13 12 12 12 11 11 11 11 10 10 10 9 9 8 8 7 7 7
17 14 14 13 11 12 11 8 7 10 10 9 14 15 11 11 12 12 16 17 17 17 17 17 18 17 16 16 16 17 17 16 17 17 18 19 20 25 30 30 30 31 29 28 29 29 30 30 30 30 29 28 27 26 26 25 24 23 23 25 25 24 23 22 24 24 22 21 19 17 14 13 13 14 15 16 15 15 14 14 13 13 12 12 12 11 10 10 10 9 9 8 8 8 8 8 7
14 12 13 13 10 10 11 9 8 9 10 9 10 10 9 9 11 13 14 15 16 18 17 15 16 17 16 15 15 15 15 16 17 17 18 19 20 25 29 29 29 30 29 28 28 28 28 28 29 30 29 28 27 27 26 24 24 26 26 27 26 23 23 24 24 24 23 21 19 16 14 14 14 14 16 16 15 15 15 14 14 13 13 12 12 11 11 10 10 9 9 9 8 8 8 8 7
14 11 12 14 13 12 12 11 10 10 9 10 8 8 8 7 9 13 13 13 14 16 17 15 15 18 17 15 15 15 15 16 18 18 19 19 18 22 27 28 28 29 29 29 28 28 29 29 30 30 29 29 29 28 28 26 27 28 27 27 25 22 24 27 25 23 24 22 19 16 15 14 14 15 16 15 15 15 14 14 14 13 13 12 12 11 11 10 10 10 9 9 8 8 8 8 8
Wind_Direction
342 329 323 317 298 279 253 223 244 208 231 207 170 225 163 344 349 159 149 151 143 77 89 139 156 350 353 9 31 46 38 17 16 5 54 97 135 137 134 130 131 129 128 129 133 138 143 151 151 144 136 135 139 140 137 135 134 132 134 135 136 138 142 145 142 137 137 134 125 123 120 111 106 104 102 98 91 89 95 98 99 102 103 104 106 107 109 110 110 111 109 105 103 101 97 93 91
340 327 322 318 292 277 274 230 244 225 222 178 185 219 149 191 231 54 88 88 71 70 76 101 107 92 45 357 23 69 54 29 41 65 82 118 130 133 137 133 132 130 128 129 133 136 139 148 153 146 138 138 142 143 139 137 137 134 134 135 136 139 141 144 142 138 139 134 130 130 122 112 110 107 105 105 101 94 95 99 101 106 109 110 110 110 111 112 112 111 109 107 106 102 97 95 93
331 327 319 314 285 255 279 264 252 237 215 188 188 147 214 207 128 57 47 51 62 78 91 111 124 95 118 196 41 54 72 34 64 86 107 135 135 136 141 135 133 129 127 130 134 137 140 149 155 149 141 141 143 143 141 139 139 135 135 138 138 140 143 143 141 139 140 136 134 131 121 114 107 104 106 106 104 99 97 100 103 106 112 117 115 115 115 115 114 113 111 109 107 103 101 98 92
323 322 312 316 297 260 266 254 248 246 220 200 185 177 236 77 92 89 74 70 91 145 347 213 132 65 336 58 68 40 93 67 58 89 124 140 136 139 141 134 132 128 128 132 135 137 143 154 158 151 143 142 141 142 143 141 139 135 137 140 140 142 144 143 141 141 141 140 134 125 119 113 103 100 107 109 106 102 100 104 109 109 113 121 122 120 119 118 116 116 114 110 109 107 103 97 89
305 296 289 303 298 294 282 254 240 238 226 212 172 177 205 103 113 113 94 90 82 45 20 295 108 116 3 54 57 38 98 92 67 90 104 113 127 137 138 133 133 129 130 132 135 135 143 157 156 152 145 140 139 140 142 141 139 139 141 141 141 142 145 144 141 140 139 137 128 123 120 113 103 99 105 109 103 95 98 109 119 120 120 123 125 125 124 124 123 121 119 118 116 109 102 96 91
294 275 248 249 283 302 277 265 238 222 183 224 170 147 181 111 120 118 120 121 84 36 24 323 336 165 133 76 60 70 62 103 98 100 105 118 130 136 134 133 132 128 130 130 133 132 142 155 156 154 144 137 137 139 140 141 143 143 143 142 143 141 143 142 139 138 134 132 126 127 124 113 104 99 101 98 93 90 94 113 124 125 125 128 129 131 131 130 130 126 126 125 116 107 101 98 92
307 297 235 225 255 254 255 260 242 231 158 213 212 128 193 100 94 243 144 149 137 152 172 349 338 294 133 117 91 72 50 62 100 105 115 128 132 135 133 133 129 126 127 126 131 131 144 153 154 154 140 137 138 139 141 143 147 146 146 144 144 141 140 138 138 138 132 129 124 123 119 112 107 101 97 87 84 85 94 116 123 121 124 133 135 134 134 133 132 132 133 125 113 106 103 99 93
286 287 272 267 261 229 249 251 248 253 159 199 252 101 256 30 294 275 107 179 124 126 171 30 331 296 134 148 109 83 63 68 93 106 119 129 132 136 133 131 128 127 125 124 128 130 145 151 152 151 138 139 140 141 144 147 150 148 145 143 143 140 138 137 136 135 127 122 118 117 117 117 115 109 105 93 85 83 103 124 123 120 124 131 135 136 138 138 140 141 136 123 111 106 103 99 96
259 251 258 269 267 251 249 245 244 251 176 176 245 177 291 291 273 282 239 182 126 255 96 40 340 320 84 120 97 98 82 84 101 111 123 129 132 134 131 133 131 130 126 124 125 128 142 149 151 145 138 141 142 144 148 149 149 147 143 141 142 139 139 140 137 136 135 136 134 131 132 137 135 131 130 119 109 100 111 124 124 124 127 131 134 139 144 145 149 148 139 125 112 107 105 102 100
248 234 250 247 255 255 247 240 231 242 223 195 224 215 208 232 254 266 271 125 122 260 65 43 322 343 24 90 90 95 93 106 114 117 125 127 131 131 130 132 130 130 127 126 128 131 139 148 147 141 141 144 145 148 150 149 146 145 143 143 142 141 144 145 145 148 156 162 165 164 167 169 163 156 146 135 128 124 124 122 125 131 138 140 138 145 152 150 151 150 141 127 114 108 108 106 105
247 215 239 253 249 248 244 243 229 237 241 225 232 231 217 238 242 246 280 314 147 255 76 43 304 1 35 83 77 92 106 122 121 122 127 127 130 128 129 127 128 129 125 126 128 132 137 145 145 142 145 146 149 151 150 149 147 147 145 145 143 144 149 150 153 155 163 167 172 180 187 183 176 169 150 139 135 136 138 131 130 136 146 148 147 155 158 154 153 152 144 129 116 112 111 113 111
244 224 218 235 242 247 245 248 239 236 237 223 236 239 224 235 231 222 241 235 299 275 33 39 5 336 21 79 80 117 127 130 123 126 130 129 129 125 126 125 127 127 126 127 127 133 138 143 144 144 148 149 152 151 151 150 149 151 147 145 144 151 154 151 151 147 153 153 163 178 186 188 183 176 154 144 141 144 149 144 141 140 146 153 156 161 159 154 153 153 149 134 122 119 112 115 120
235 234 227 228 231 245 245 252 251 244 238 218 229 235 220 229 231 230 231 211 248 256 47 32 343 326 50 75 119 140 134 128 125 131 132 130 129 126 125 123 125 127 129 129 127 134 140 143 143 147 152 152 154 152 153 152 151 152 147 148 150 156 155 148 142 138 139 131 135 141 152 172 175 169 158 153 148 150 157 156 151 143 142 150 156 156 155 155 158 163 163 156 146 139 131 126 162
237 237 239 239 228 234 236 248 255 249 245 227 229 227 207 231 230 229 245 234 236 241 49 14 323 353 75 100 153 151 139 131 134 135 134 132 129 128 128 125 128 133 132 128 130 136 143 146 147 155 158 154 153 154 155 153 153 151 150 153 156 159 155 147 140 137 131 124 122 117 119 128 143 154 154 155 152 154 164 167 158 145 137 139 145 148 153 158 163 172 178 183 184 186 216 268 293
244 247 242 245 237 235 227 229 246 251 247 235 236 219 196 236 229 224 240 238 244 55 29 319 316 314 139 208 215 147 144 138 145 141 135 136 131 127 131 134 135 138 129 128 135 138 147 148 150 161 161 157 156 156 155 154 153 153 156 155 159 163 155 144 138 134 129 125 117 108 105 100 102 124 140 146 149 157 164 166 157 145 140 140 145 150 156 163 171 180 188 193 200 218 240 267 282
238 253 246 246 239 239 230 222 236 246 243 234 240 217 204 226 209 233 241 242 275 91 243 250 1 328 89 126 128 132 141 141 148 141 133 136 131 127 137 143 140 136 125 131 141 141 150 152 155 163 163 162 158 156 154 154 155 157 159 156 161 164 153 145 141 138 134 124 110 102 97 96 88 85 107 128 137 151 156 161 161 152 150 151 153 157 161 167 175 183 193 202 210 221 234 251 265
232 239 241 245 238 236 233 226 225 235 241 227 218 203 213 225 198 226 254 248 267 211 198 217 54 13 46 106 131 132 139 141 146 140 139 141 135 137 147 150 144 139 133 140 148 146 154 157 160 165 165 164 158 155 154 155 159 161 160 159 163 159 148 144 141 141 136 118 103 100 101 115 124 94 107 126 133 148 156 163 167 161 158 160 161 162 165 169 178 188 199 209 219 224 231 237 246
233 235 234 239 237 233 234 233 220 224 237 211 200 209 221 240 216 204 229 232 250 248 217 160 113 95 92 134 136 136 141 143 150 148 149 150 144 148 155 156 151 150 151 150 153 154 158 162 165 168 167 163 158 156 156 158 160 159 158 158 158 151 140 136 140 143 142 127 108 110 122 145 155 138 135 134 138 153 162 166 169 169 166 167 166 167 170 175 183 191 201 212 225 231 234 226 226
225 233 235 235 235 233 236 238 228 222 220 179 209 223 219 240 233 184 202 238 235 234 230 201 172 146 129 148 144 139 145 147 153 154 157 160 154 156 161 161 156 157 162 158 157 162 164 166 167 170 168 162 159 156 156 158 159 159 156 154 151 147 138 139 155 159 162 160 147 149 161 167 157 154 154 150 154 158 168 170 173 175 174 175 175 178 180 186 193 199 210 212 220 228 230 227 226
218 224 233 234 234 237 236 236 234 230 204 170 214 222 217 234 237 208 203 240 240 234 231 223 217 183 153 154 149 143 148 149 157 160 164 169 156 158 169 163 161 161 165 164 161 167 169 169 169 171 169 161 159 158 156 158 161 162 157 155 152 152 150 156 171 172 174 174 170 173 174 172 162 157 152 152 155 150 163 168 171 176 179 185 182 183 178 183 188 196 204 192 214 226 228 238 251
213 219 231 236 237 236 235 235 236 238 218 195 228 230 231 236 233 242 246 244 244 241 238 231 236 206 157 152 153 149 150 152 163 168 172 175 152 160 177 163 164 164 165 166 163 171 170 170 172 171 169 162 162 162 160 161 164 163 160 158 153 156 161 165 174 176 179 177 178 184 180 175 163 160 156 155 159 160 170 172 176 178 179 187 187 190 195 208 201 204 204 181 220 232 236 265 318
218 221 227 233 238 235 231 234 235 241 223 205 231 234 237 238 224 238 246 246 244 242 244 233 238 191 137 152 163 150 155 161 168 175 181 177 156 165 170 154 162 165 165 164 163 173 168 171 175 170 170 167 167 165 160 161 164 165 162 159 155 158 166 170 177 179 184 185 187 190 188 184 172 176 177 166 169 183 192 186 182 182 182 186 194 200 200 215 219 209 207 188 223 241 293 320 329
224 226 226 228 237 241 236 232 234 240 223 209 232 237 237 235 227 231 237 242 247 249 254 240 257 129 131 155 160 156 164 166 172 179 183 179 167 166 155 151 163 168 168 161 163 171 166 173 175 169 172 170 171 168 162 163 164 166 162 159 161 163 170 177 182 182 186 190 190 195 195 193 185 188 192 180 179 194 199 189 181 187 188 178 186 208 187 212 243 199 186 176 252 321 6 321 325
224 229 229 229 233 239 244 238 230 235 227 216 229 240 241 234 229 234 235 233 236 248 250 183 244 263 186 161 159 168 166 169 178 178 184 182 167 161 161 164 166 168 170 161 165 170 167 174 175 170 173 172 172 171 169 168 166 165 160 162 167 167 173 180 184 185 188 192 191 198 200 198 198 192 193 195 192 196 194 180 178 189 183 147 145 203 150 162 290 67 100 156 135 349 31 348 324
223 230 229 232 232 231 242 246 235 236 231 218 227 241 244 237 235 237 237 230 228 247 242 178 221 238 232 184 165 173 169 172 176 174 186 178 158 161 169 171 168 172 171 164 166 169 170 174 176 174 174 174 171 173 175 171 167 163 160 166 168 169 180 182 183 187 189 193 193 198 200 195 204 201 198 201 193 196 192 179 178 170 148 126 122 85 93 111 315 118 186 159 117 26 47 7 325
221 228 227 231 236 229 231 241 240 242 234 215 228 241 243 237 238 237 236 236 226 241 233 177 208 233 230 198 171 178 174 173 172 174 185 172 162 171 174 173 172 172 168 167 168 169 173 173 177 177 174 175 172 174 177 171 168 164 165 170 167 171 184 186 183 190 192 191 190 197 198 193 203 204 204 208 195 194 192 180 174 158 139 123 121 101 73 50 13 46 21 24 52 39 32 9 336
223 228 227 229 238 233 225 232 236 240 234 218 226 240 241 231 232 231 227 235 231 239 231 176 190 235 234 200 171 181 177 175 174 172 182 176 171 176 178 177 172 169 165 170 172 169 174 175 177 177 174 177 175 176 175 171 168 165 168 169 167 173 184 189 187 191 193 191 191 194 198 196 203 201 209 220 209 197 188 177 169 152 132 116 109 100 77 51 35 24 28 29 21 20 16 358 345
230 231 229 225 231 235 231 234 232 233 234 225 228 241 242 230 230 232 220 223 225 238 239 185 196 235 236 201 171 184 181 177 175 173 184 180 174 177 181 181 173 169 168 174 176 167 172 177 177 174 176 181 179 176 172 171 170 167 169 167 170 176 183 189 187 190 192 190 190 191 196 197 204 208 210 220 232 217 185 167 161 142 121 113 100 88 74 57 50 23 29 36 23 22 17 3 3
233 231 231 222 224 234 230 227 224 228 235 227 231 242 239 231 232 233 222 215 216 229 238 212 218 235 234 205 173 188 183 177 179 177 184 181 176 179 183 183 174 170 170 174 174 166 170 177 176 174 178 182 180 176 172 171 171 170 170 168 171 175 183 187 184 192 194 191 193 193 195 195 216 222 199 195 255 264 194 160 148 129 111 103 92 80 73 60 55 32 23 30 28 26 24 24 23
228 225 229 223 222 229 220 216 222 228 231 221 227 240 234 231 233 231 216 213 216 215 219 217 222 228 230 211 182 193 185 180 184 178 182 182 178 181 185 182 172 170 169 171 172 168 171 175 175 176 179 181 178 175 175 174 172 171 170 171 174 177 181 181 184 195 197 199 197 192 192 197 226 223 192 177 268 289 165 135 115 111 100 93 83 69 67 65 54 28 10 15 15 19 36 41 36
219 220 224 223 227 224 208 209 219 224 226 219 224 241 237 232 232 226 205 212 219 209 211 215 217 219 222 210 187 194 189 181 183 178 181 184 181 183 182 174 172 172 167 171 172 167 171 174 174 176 179 179 175 175 176 175 173 171 172 173 177 179 178 179 189 197 199 202 195 190 195 208 229 221 185 170 175 196 145 127 75 84 89 86 74 61 58 56 41 21 13 17 4 11 41 25 32
212 218 216 214 227 223 207 208 214 220 224 219 222 237 238 235 235 227 201 202 212 209 210 212 214 214 209 203 192 194 189 177 179 176 178 185 184 184 175 165 172 173 166 171 169 166 172 174 174 176 178 177 174 176 174 173 173 172 174 176 178 177 176 184 193 198 197 195 189 198 204 207 230 227 198 175 156 160 146 128 106 76 81 76 61 50 42 37 19 7 17 22 8 353 24 12 37
208 216 215 211 219 223 214 208 209 217 222 215 219 231 237 234 235 235 213 195 204 214 211 212 215 207 201 202 195 193 184 172 177 176 176 184 185 181 170 163 173 173 166 170 167 168 173 172 174 176 177 177 175 174 172 173 174 173 174 176 178 175 174 184 192 195 189 184 190 201 203 183 196 208 212 185 137 137 139 128 117 87 73 61 54 42 31 22 3 359 7 15 7 333 314 354 79
202 210 219 218 217 222 222 212 206 210 216 215 218 228 237 233 230 238 226 195 198 212 211 218 221 208 201 200 200 206 192 174 176 176 175 181 183 180 170 165 173 173 167 170 168 168 171 172 175 175 177 177 174 173 172 174 175 174 175 174 177 177 175 180 185 187 177 174 184 181 181 153 131 142 129 100 101 116 121 113 97 75 55 42 44 39 42 27 1 3 353 351 354 338 327 339 103
203 205 214 219 219 222 221 219 210 201 210 221 223 226 229 233 236 237 214 184 194 207 212 221 222 212 200 187 200 221 212 186 172 171 173 176 178 177 171 167 172 173 168 169 169 168 170 172 174 175 177 176 173 174 172 173 174 173 175 173 177 181 176 172 168 167 164 160 162 158 164 150 127 118 109 97 91 96 98 89 72 57 37 29 26 356 16 8 344 345 332 328 333 1 33 302 121
211 210 214 218 221 225 223 225 221 203 207 220 225 230 223 223 233 222 159 172 201 210 216 223 221 218 205 187 189 207 221 207 169 163 168 172 173 171 167 166 170 171 169 169 169 169 169 170 173 175 175 172 170 172 173 173 175 174 175 173 177 181 177 169 160 156 156 147 144 145 144 137 124 119 113 99 88 80 76 67 58 46 23 20 22 347 328 333 328 303 300 315 269 124 115 175 134
219 217 220 223 226 229 225 226 224 215 217 216 221 234 228 216 226 217 177 181 202 211 219 226 227 227 216 199 187 192 213 207 169 162 167 169 169 169 167 166 169 169 169 170 169 170 169 170 173 173 172 169 167 174 182 180 177 175 176 178 181 180 174 167 158 152 148 136 135 142 135 125 123 121 113 96 83 71 68 58 37 27 13 10 19 359 322 309 299 260 240 226 208 148 138 166 132
227 224 225 226 227 229 226 222 218 221 229 222 219 232 231 220 223 220 207 200 199 208 220 225 227 227 221 210 195 189 200 193 172 166 168 168 168 171 169 166 169 170 170 171 167 167 169 172 175 173 170 170 171 178 186 185 182 180 180 183 183 177 174 171 160 147 139 130 131 134 132 127 125 120 110 102 91 70 61 43 2 356 354 338 324 315 322 293 242 199 181 156 131 132 165 185 140
232 230 227 227 225 224 226 223 214 218 230 223 219 229 230 226 226 223 224 221 205 203 214 221 223 223 222 218 203 190 191 186 177 168 168 172 175 174 167 166 170 169 170 168 164 166 172 176 174 169 170 174 177 179 184 186 184 185 186 183 178 169 161 157 148 143 143 139 137 137 138 134 128 126 115 100 86 61 36 19 356 343 323 304 271 248 259 223 177 168 173 155 129 130 157 199 170
231 232 227 228 227 220 220 223 216 216 224 216 217 228 228 225 227 226 227 230 220 204 209 219 223 224 222 219 213 198 190 185 178 172 170 174 179 176 170 170 170 169 168 163 162 170 175 175 172 170 172 176 181 182 184 185 182 184 184 174 166 158 147 142 135 137 145 143 142 144 150 148 138 126 110 88 69 35 4 354 337 311 290 279 211 196 167 143 144 147 152 146 156 150 142 161 235
229 233 228 224 228 223 217 220 216 215 219 212 215 228 227 219 222 225 225 229 228 213 208 216 221 223 222 217 215 204 190 183 177 174 174 174 175 176 175 172 170 171 167 160 166 175 176 175 175 173 173 176 180 182 181 179 175 173 166 152 149 146 144 148 146 146 150 150 148 143 143 144 134 114 103 103 61 340 344 352 303 166 137 117 125 136 129 119 116 121 126 119 118 122 127 128 94
226 228 225 227 230 227 224 220 210 209 215 208 212 226 227 217 218 222 222 222 224 219 213 217 219 217 216 214 209 201 191 186 181 176 175 176 174 174 176 173 173 176 166 161 171 182 183 180 176 173 175 178 180 180 179 175 172 168 160 155 156 154 156 163 165 163 160 158 153 141 133 131 123 109 101 102 307 320 355 71 115 118 114 111 109 113 111 106 100 98 103 103 88 78 112 123 99
222 213 214 230 233 226 223 214 200 200 212 204 207 222 232 222 220 219 219 220 218 218 218 218 218 213 210 209 202 196 192 186 185 182 176 177 176 174 177 174 175 178 166 164 178 187 186 180 176 176 178 179 179 180 179 176 175 170 167 169 171 170 170 171 171 167 161 159 152 140 133 128 122 107 83 3 296 304 81 103 113 110 111 110 103 103 100 98 96 88 84 91 97 89 107 125 111
220 199 205 227 230 223 219 212 203 205 216 211 205 215 234 231 223 214 212 219 216 213 218 217 214 210 206 204 198 191 189 185 186 184 177 177 177 175 177 174 175 177 166 170 185 188 181 180 180 180 179 178 179 180 179 180 178 174 176 180 179 178 173 167 167 165 160 157 151 143 137 131 124 107 69 177 155 130 120 115 113 107 108 107 102 99 93 93 93 86 82 84 89 83 82 109 104
221 200 201 217 222 228 225 215 212 209 214 219 204 204 226 237 227 215 208 213 216 213 215 214 211 208 203 200 196 190 186 184 184 181 176 177 176 174 175 174 175 176 170 176 188 183 177 182 181 178 181 181 181 180 180 182 182 181 181 178 178 175 165 160 164 165 159 155 150 145 140 141 147 147 153 152 139 133 124 116 113 106 104 104 102 98 92 91 89 86 85 83 87 83 72 83 92
223 209 202 207 214 231 232 216 215 213 214 227 211 198 211 233 224 217 211 209 213 215 212 210 209 206 200 195 194 191 183 181 181 177 175 175 175 172 171 173 176 174 171 178 185 177 177 183 180 180 184 184 185 182 181 184 187 185 178 172 174 165 156 159 164 164 160 155 152 147 141 145 159 157 154 153 147 148 132 119 118 108 102 101 100 98 94 92 89 87 87 83 85 87 79 77 79
217 215 208 204 210 225 232 223 221 218 216 226 222 206 205 228 221 213 221 214 207 213 213 208 205 203 200 194 192 190 183 178 177 174 172 171 173 169 166 174 177 168 167 179 184 178 178 182 185 186 185 184 187 185 184 188 188 182 176 175 172 161 158 164 167 167 166 160 155 151 146 152 162 160 160 159 153 155 141 122 119 112 106 102 100 99 96 94 94 92 89 85 82 83 83 80 75
212 217 213 202 204 213 218 224 224 223 220 219 224 218 209 219 223 209 221 220 207 208 211 205 201 202 199 194 192 190 183 176 174 173 170 168 170 167 167 175 175 166 168 180 184 181 180 183 187 187 185 187 187 185 187 190 184 177 177 176 170 164 167 171 170 171 171 166 159 154 153 160 165 164 165 164 158 159 151 132 123 118 110 105 103 102 101 100 100 96 91 87 84 81 82 81 78
206 213 210 201 199 198 202 210 212 221 226 217 219 222 215 218 232 223 222 219 205 202 210 203 199 201 197 192 192 188 181 176 174 171 166 167 168 166 170 177 173 167 172 180 182 183 183 184 186 185 186 188 186 185 187 187 182 177 177 175 169 167 172 175 173 172 171 169 163 161 164 166 167 166 168 171 166 160 157 144 131 123 115 110 107 104 104 104 101 99 94 90 88 84 82 83 81
201 206 202 200 200 191 194 201 203 214 225 223 217 217 219 224 229 227 229 225 201 195 207 205 197 196 193 192 193 188 181 178 178 174 167 168 170 168 173 179 174 169 173 178 180 181 182 183 185 185 186 187 184 185 186 184 182 180 177 174 170 171 177 178 176 173 171 170 167 168 170 169 168 169 172 172 168 163 159 149 133 125 120 114 111 108 107 105 102 101 98 95 93 87 85 85 82
201 208 203 206 206 195 196 195 199 208 213 219 213 207 217 224 222 218 221 230 213 193 200 204 195 190 189 193 197 192 183 180 178 176 173 173 170 169 174 179 177 173 173 176 179 180 182 184 185 186 186 186 184 185 186 184 181 179 178 174 172 179 182 178 176 175 172 171 171 170 172 171 166 166 172 170 166 165 158 147 133 126 123 118 115 114 110 107 105 104 102 97 94 90 89 89 87
199 208 208 209 207 202 205 204 210 217 213 214 210 208 220 219 222 209 210 221 215 185 188 199 190 184 185 194 199 193 185 181 175 173 177 176 169 167 174 180 180 177 174 175 177 181 184 186 186 187 187 187 186 185 187 185 180 179 180 176 177 183 182 177 173 172 172 172 171 169 169 169 163 162 168 166 164 164 156 146 136 130 127 123 119 118 115 111 109 107 105 101 97 96 94 95 96
196 208 210 209 211 211 208 209 219 230 221 212 204 215 221 210 211 206 204 217 207 181 190 199 186 182 186 194 198 191 185 182 174 174 179 176 170 170 175 180 182 180 178 179 179 182 185 185 186 187 187 188 187 186 187 184 179 178 179 181 184 183 179 175 171 169 169 170 170 169 166 163 166 168 169 167 164 162 155 145 139 134 130 127 124 121 118 116 114 111 110 107 104 105 102 100 100
199 204 205 207 218 220 210 206 207 210 216 207 197 210 216 209 206 192 193 215 202 182 193 198 188 188 191 193 194 189 185 179 173 176 180 178 174 173 176 180 182 183 183 182 181 181 184 186 186 185 186 188 186 186 187 183 179 176 177 183 184 179 175 173 170 168 166 166 163 163 162 158 160 164 166 167 165 159 153 146 140 138 134 131 127 125 124 120 118 116 113 112 112 113 110 104 99
218 208 201 207 218 214 209 211 207 203 210 209 202 207 214 216 208 180 186 207 200 183 191 197 191 189 189 187 188 188 184 177 173 177 182 182 178 175 177 179 182 184 185 184 181 180 183 186 186 185 185 187 186 184 184 181 178 174 176 181 178 176 177 174 170 168 165 165 161 155 157 156 154 159 164 164 163 158 153 149 145 142 138 135 132 130 130 127 123 121 119 119 121 120 116 108 101
224 216 203 211 223 215 208 211 213 206 206 209 204 205 215 223 215 191 188 201 200 191 194 198 191 185 185 184 183 186 184 177 173 174 180 183 180 178 179 181 182 182 183 183 181 181 184 184 185 185 184 184 184 181 179 176 175 175 177 179 176 176 176 170 171 174 168 165 163 155 155 156 156 162 164 162 161 159 155 152 149 146 143 140 138 136 135 132 129 127 126 127 128 125 119 112 106
213 217 206 205 214 219 214 211 218 215 209 211 208 208 216 219 217 204 190 193 201 198 194 195 189 183 185 185 184 185 183 178 173 173 180 183 179 176 178 181 181 179 180 183 181 181 183 183 183 183 183 182 180 176 173 171 174 179 180 179 177 177 175 170 173 177 171 164 161 156 156 159 160 163 163 162 162 159 157 155 152 150 147 144 143 142 140 138 136 134 134 132 131 128 121 116 113
201 211 208 202 202 209 211 207 211 215 214 213 209 218 220 205 206 207 191 187 201 199 191 192 191 184 182 185 187 183 180 179 176 177 182 181 175 172 174 179 179 176 179 181 178 180 183 184 183 183 183 182 176 173 174 174 176 179 178 177 175 173 177 178 175 171 169 164 158 157 159 160 162 165 165 165 162 159 158 155 153 152 150 148 147 145 144 145 144 141 138 136 134 131 124 120 118